| time (UTC) | temp C | wind direction | speed KPH | gust KPH | rain 1hr cm | rain 24hr cm | rain mn cm | humidity % | barometer mb |
| 20260506112503 | 8 | 319 | 0.0 | 1.6 | 0.08 | 2.51 | 1.47 | 93 | 1007.7 |
| 20260506112003 | 8 | 0 | 0.0 | 0.0 | 0.10 | 2.51 | 1.47 | 93 | 1007.6 |
| 20260506111004 | 8 | 0 | 0.0 | 0.0 | 0.18 | 2.51 | 1.47 | 93 | 1007.2 |
| 20260506110504 | 8 | 0 | 0.0 | 0.0 | 0.20 | 2.51 | 1.47 | 93 | 1006.8 |
| 20260506110004 | 8 | 0 | 0.0 | 0.0 | 0.23 | 2.51 | 1.47 | 93 | 1006.6 |
| 20260506105504 | 8 | 0 | 0.0 | 0.0 | 0.28 | 2.51 | 1.47 | 93 | 1006.2 |
| 20260506105004 | 8 | 0 | 0.0 | 0.0 | 0.28 | 2.49 | 1.45 | 93 | 1006.3 |
| 20260506104504 | 8 | 0 | 0.0 | 0.0 | 0.30 | 2.49 | 1.45 | 93 | 1006.4 |
| 20260506103503 | 8 | 0 | 0.0 | 0.0 | 0.33 | 2.46 | 1.42 | 93 | 1006.8 |
| 20260506102503 | 8 | 0 | 0.0 | 0.0 | 0.33 | 2.44 | 1.40 | 93 | 1006.9 |
| 20260506102004 | 8 | 0 | 0.0 | 0.0 | 0.33 | 2.41 | 1.37 | 93 | 1007.0 |
| 20260506101504 | 8 | 0 | 0.0 | 0.0 | 0.30 | 2.39 | 1.35 | 93 | 1007.0 |
| 20260506101004 | 8 | 0 | 0.0 | 0.0 | 0.25 | 2.34 | 1.30 | 93 | 1006.9 |
| 20260506100504 | 8 | 0 | 0.0 | 0.0 | 0.25 | 2.31 | 1.27 | 93 | 1007.1 |
| 20260506100004 | 8 | 357 | 0.0 | 8.0 | 0.23 | 2.29 | 1.24 | 93 | 1007.1 |
| 20260506095004 | 8 | 358 | 0.0 | 4.8 | 0.15 | 2.21 | 1.17 | 93 | 1006.6 |
| 20260506094004 | 8 | 0 | 0.0 | 0.0 | 0.15 | 2.16 | 1.12 | 93 | 1006.8 |
| 20260506093504 | 8 | 313 | 0.0 | 4.8 | 0.15 | 2.13 | 1.09 | 93 | 1006.8 |
| 20260506093004 | 8 | 318 | 0.0 | 4.8 | 0.15 | 2.11 | 1.07 | 93 | 1006.5 |
| 20260506092504 | 8 | 358 | 0.0 | 1.6 | 0.18 | 2.11 | 1.07 | 93 | 1006.5 |
| 20260506092004 | 8 | 322 | 0.0 | 3.2 | 0.18 | 2.08 | 1.04 | 93 | 1006.4 |
| 20260506091504 | 8 | 308 | 0.0 | 3.2 | 0.20 | 2.08 | 1.04 | 93 | 1006.4 |
| 20260506085504 | 9 | 2 | 0.0 | 9.7 | 0.30 | 2.06 | 1.02 | 93 | 1006.1 |
| 20260506084504 | 9 | 338 | 0.0 | 1.6 | 0.30 | 2.03 | 0.99 | 94 | 1006.3 |
| 20260506084003 | 10 | 0 | 0.0 | 0.0 | 0.30 | 2.01 | 0.97 | 94 | 1006.3 |
| 20260506083503 | 10 | 0 | 0.0 | 0.0 | 0.28 | 1.98 | 0.94 | 94 | 1006.4 |
| 20260506083003 | 10 | 0 | 0.0 | 0.0 | 0.28 | 1.96 | 0.91 | 95 | 1006.3 |
| 20260506082004 | 10 | 0 | 0.0 | 0.0 | 0.28 | 1.91 | 0.86 | 94 | 1006.5 |
| 20260506081503 | 10 | 0 | 0.0 | 0.0 | 0.28 | 1.88 | 0.84 | 94 | 1006.3 |
| 20260506081003 | 10 | 0 | 0.0 | 0.0 | 0.23 | 1.83 | 0.79 | 94 | 1006.2 |
| 20260506073503 | 10 | 0 | 0.0 | 0.0 | 0.23 | 1.70 | 0.66 | 95 | 1006.0 |
| 20260506073003 | 10 | 0 | 0.0 | 0.0 | 0.23 | 1.68 | 0.64 | 95 | 1006.0 |
| 20260506072503 | 10 | 0 | 0.0 | 0.0 | 0.23 | 1.65 | 0.61 | 95 | 1006.0 |
| 20260506072003 | 10 | 20 | 0.0 | 3.2 | 0.23 | 1.63 | 0.58 | 95 | 1006.0 |
| 20260506071503 | 10 | 20 | 0.0 | 3.2 | 0.20 | 1.60 | 0.56 | 95 | 1006.0 |
| 20260506071003 | 10 | 0 | 0.0 | 0.0 | 0.23 | 1.60 | 0.56 | 95 | 1005.9 |
| 20260506062503 | 10 | 0 | 0.0 | 0.0 | 0.18 | 1.42 | 0.38 | 95 | 1006.4 |
| 20260506062003 | 10 | 0 | 0.0 | 0.0 | 0.18 | 1.40 | 0.36 | 95 | 1006.5 |
| 20260506061003 | 10 | 0 | 0.0 | 0.0 | 0.18 | 1.37 | 0.33 | 95 | 1006.6 |
| 20260506060504 | 10 | 0 | 0.0 | 0.0 | 0.18 | 1.37 | 0.33 | 95 | 1006.7 |
| 20260506051003 | 10 | 0 | 0.0 | 0.0 | 0.13 | 1.19 | 0.15 | 94 | 1007.2 |
| 20260506050504 | 10 | 0 | 0.0 | 0.0 | 0.13 | 1.17 | 0.13 | 95 | 1007.3 |
| 20260506045004 | 10 | 0 | 0.0 | 0.0 | 0.10 | 1.14 | 0.10 | 94 | 1007.6 |
| 20260506044503 | 10 | 13 | 0.0 | 1.6 | 0.13 | 1.14 | 0.10 | 94 | 1007.6 |
| 20260506043004 | 11 | 0 | 0.0 | 0.0 | 0.13 | 1.09 | 0.05 | 95 | 1007.8 |
| 20260506042504 | 11 | 0 | 0.0 | 0.0 | 0.18 | 1.09 | 0.05 | 95 | 1007.8 |
| 20260506042004 | 11 | 0 | 0.0 | 0.0 | 0.20 | 1.09 | 0.05 | 95 | 1007.8 |
| 20260506040005 | 11 | 0 | 0.0 | 0.0 | 0.30 | 1.04 | 0.00 | 95 | 1008.0 |
| 20260506035504 | 11 | 0 | 0.0 | 0.0 | 0.30 | 1.04 | 1.04 | 94 | 1007.9 |
| 20260506034503 | 11 | 0 | 0.0 | 0.0 | 0.30 | 1.02 | 1.02 | 94 | 1008.0 |
| 20260506033503 | 12 | 0 | 0.0 | 0.0 | 0.28 | 0.99 | 0.99 | 94 | 1008.3 |
| 20260506033004 | 12 | 0 | 0.0 | 0.0 | 0.25 | 0.97 | 0.97 | 95 | 1008.1 |
| 20260506032503 | 12 | 0 | 0.0 | 0.0 | 0.20 | 0.91 | 0.91 | 94 | 1007.8 |
| 20260506032003 | 12 | 0 | 0.0 | 0.0 | 0.20 | 0.89 | 0.89 | 94 | 1007.6 |
| 20260506031504 | 12 | 0 | 0.0 | 0.0 | 0.18 | 0.86 | 0.86 | 94 | 1007.5 |
| 20260506031004 | 12 | 0 | 0.0 | 0.0 | 0.13 | 0.81 | 0.81 | 94 | 1007.5 |
| 20260506030504 | 12 | 0 | 0.0 | 0.0 | 0.10 | 0.76 | 0.76 | 94 | 1007.5 |
| 20260506030004 | 12 | 0 | 0.0 | 0.0 | 0.10 | 0.74 | 0.74 | 95 | 1007.6 |
| 20260506025504 | 12 | 0 | 0.0 | 0.0 | 0.10 | 0.74 | 0.74 | 94 | 1007.7 |
| 20260506024503 | 12 | 0 | 0.0 | 0.0 | 0.08 | 0.71 | 0.71 | 94 | 1007.6 |
| 20260506024003 | 12 | 0 | 0.0 | 0.0 | 0.10 | 0.71 | 0.71 | 94 | 1007.7 |
| 20260506023503 | 12 | 0 | 0.0 | 0.0 | 0.10 | 0.71 | 0.71 | 94 | 1007.6 |
| 20260506023003 | 12 | 0 | 0.0 | 0.0 | 0.13 | 0.71 | 0.71 | 94 | 1007.8 |
| 20260506022503 | 12 | 0 | 0.0 | 0.0 | 0.13 | 0.71 | 0.71 | 94 | 1007.7 |
| 20260506022003 | 12 | 0 | 0.0 | 0.0 | 0.10 | 0.69 | 0.69 | 94 | 1007.7 |
| 20260506021004 | 12 | 0 | 0.0 | 0.0 | 0.08 | 0.66 | 0.66 | 93 | 1007.7 |
| 20260506020504 | 12 | 0 | 0.0 | 0.0 | 0.08 | 0.66 | 0.66 | 93 | 1007.8 |
| 20260506015504 | 12 | 0 | 0.0 | 0.0 | 0.10 | 0.64 | 0.64 | 93 | 1007.7 |
| 20260506015004 | 12 | 0 | 0.0 | 0.0 | 0.10 | 0.64 | 0.64 | 93 | 1007.6 |
| 20260506014504 | 12 | 0 | 0.0 | 0.0 | 0.13 | 0.64 | 0.64 | 93 | 1007.6 |
| 20260506014003 | 12 | 0 | 0.0 | 0.0 | 0.15 | 0.61 | 0.61 | 93 | 1007.7 |
| 20260506013003 | 12 | 0 | 0.0 | 0.0 | 0.28 | 0.58 | 0.58 | 93 | 1007.6 |
| 20260506012004 | 12 | 0 | 0.0 | 0.0 | 0.46 | 0.58 | 0.58 | 92 | 1007.4 |
| 20260506011504 | 12 | 0 | 0.0 | 0.0 | 0.46 | 0.58 | 0.58 | 92 | 1007.4 |
| 20260506011004 | 12 | 0 | 0.0 | 0.0 | 0.48 | 0.58 | 0.58 | 92 | 1007.3 |
| 20260506010503 | 12 | 0 | 0.0 | 0.0 | 0.53 | 0.58 | 0.58 | 91 | 1007.4 |
| 20260506010003 | 12 | 0 | 0.0 | 0.0 | 0.51 | 0.56 | 0.56 | 91 | 1007.6 |
| 20260506005504 | 13 | 0 | 0.0 | 0.0 | 0.48 | 0.53 | 0.53 | 90 | 1007.5 |
| 20260506004504 | 13 | 334 | 0.0 | 20.9 | 0.43 | 0.48 | 0.48 | 89 | 1007.8 |
| 20260506003503 | 14 | 12 | 0.0 | 4.8 | 0.38 | 0.43 | 0.43 | 89 | 1007.5 |
| 20260506003004 | 15 | 102 | 0.0 | 1.6 | 0.25 | 0.30 | 0.30 | 88 | 1007.8 |
| 20260506002503 | 15 | 284 | 0.0 | 4.8 | 0.08 | 0.13 | 0.13 | 87 | 1007.7 |
| 20260506001504 | 16 | 332 | 0.0 | 8.0 | 0.08 | 0.13 | 0.13 | 87 | 1006.8 |
| 20260506001004 | 16 | 0 | 0.0 | 0.0 | 0.05 | 0.10 | 0.10 | 86 | 1006.8 |
| 20260506000504 | 16 | 0 | 0.0 | 0.0 | 0.00 | 0.05 | 0.05 | 85 | 1007.0 |
| 20260506000004 | 16 | 343 | 0.0 | 1.6 | 0.00 | 0.05 | 0.05 | 84 | 1006.6 |
| 20260505235503 | 16 | 329 | 0.0 | 8.0 | 0.00 | 0.05 | 0.05 | 84 | 1006.6 |
| 20260505235003 | 17 | 321 | 0.0 | 8.0 | 0.00 | 0.05 | 0.05 | 82 | 1006.6 |
| 20260505234503 | 17 | 0 | 0.0 | 0.0 | 0.00 | 0.05 | 0.05 | 81 | 1006.5 |
| 20260505233504 | 17 | 0 | 0.0 | 0.0 | 0.00 | 0.05 | 0.05 | 79 | 1006.6 |
| 20260505233004 | 17 | 0 | 0.0 | 0.0 | 0.00 | 0.05 | 0.05 | 78 | 1006.5 |
| 20260505232504 | 17 | 0 | 0.0 | 0.0 | 0.00 | 0.05 | 0.05 | 77 | 1006.3 |
| 20260505232004 | 17 | 0 | 0.0 | 0.0 | 0.00 | 0.05 | 0.05 | 77 | 1006.5 |
| 20260505231504 | 17 | 0 | 0.0 | 0.0 | 0.00 | 0.05 | 0.05 | 76 | 1006.5 |
| 20260505231003 | 18 | 0 | 0.0 | 0.0 | 0.00 | 0.05 | 0.05 | 75 | 1006.6 |
| 20260505230503 | 18 | 0 | 0.0 | 0.0 | 0.00 | 0.05 | 0.05 | 75 | 1006.3 |
| 20260505230003 | 18 | 0 | 0.0 | 0.0 | 0.00 | 0.05 | 0.05 | 75 | 1006.6 |
| 20260505225504 | 18 | 0 | 0.0 | 0.0 | 0.00 | 0.05 | 0.05 | 75 | 1006.8 |
| 20260505225003 | 18 | 0 | 0.0 | 0.0 | 0.00 | 0.05 | 0.05 | 75 | 1006.9 |
| 20260505224503 | 18 | 0 | 0.0 | 0.0 | 0.00 | 0.05 | 0.05 | 76 | 1006.8 |
| 20260505224004 | 18 | 0 | 0.0 | 0.0 | 0.00 | 0.05 | 0.05 | 75 | 1007.0 |
| 20260505223504 | 18 | 0 | 0.0 | 0.0 | 0.00 | 0.05 | 0.05 | 76 | 1006.9 |
| 20260505223004 | 18 | 0 | 0.0 | 0.0 | 0.00 | 0.05 | 0.05 | 76 | 1006.9 |
| 20260505222504 | 18 | 0 | 0.0 | 0.0 | 0.00 | 0.05 | 0.05 | 77 | 1007.0 |
| 20260505221503 | 18 | 0 | 0.0 | 0.0 | 0.00 | 0.05 | 0.05 | 77 | 1006.9 |
| 20260505221003 | 18 | 0 | 0.0 | 0.0 | 0.00 | 0.05 | 0.05 | 77 | 1006.8 |
| 20260505220503 | 18 | 0 | 0.0 | 0.0 | 0.03 | 0.05 | 0.05 | 76 | 1006.8 |
| 20260505220003 | 17 | 0 | 0.0 | 0.0 | 0.03 | 0.05 | 0.05 | 77 | 1006.8 |
| 20260505215503 | 18 | 0 | 0.0 | 0.0 | 0.03 | 0.05 | 0.05 | 76 | 1006.8 |
| 20260505215003 | 18 | 0 | 0.0 | 0.0 | 0.03 | 0.05 | 0.05 | 75 | 1006.8 |
| 20260505214503 | 17 | 0 | 0.0 | 0.0 | 0.03 | 0.05 | 0.05 | 75 | 1006.8 |
| 20260505214004 | 17 | 0 | 0.0 | 0.0 | 0.03 | 0.05 | 0.05 | 76 | 1006.9 |
| 20260505213504 | 17 | 0 | 0.0 | 0.0 | 0.03 | 0.05 | 0.05 | 76 | 1006.9 |
| 20260505213004 | 17 | 0 | 0.0 | 0.0 | 0.03 | 0.05 | 0.05 | 76 | 1006.9 |
| 20260505212504 | 17 | 0 | 0.0 | 0.0 | 0.03 | 0.05 | 0.05 | 74 | 1006.9 |
| 20260505212003 | 18 | 0 | 0.0 | 0.0 | 0.03 | 0.05 | 0.05 | 74 | 1006.9 |
| 20260505211503 | 18 | 0 | 0.0 | 0.0 | 0.03 | 0.05 | 0.05 | 74 | 1007.0 |
| 20260505211003 | 18 | 0 | 0.0 | 0.0 | 0.03 | 0.05 | 0.05 | 71 | 1007.0 |
| 20260505210503 | 18 | 0 | 0.0 | 0.0 | 0.00 | 0.03 | 0.03 | 71 | 1007.0 |
| 20260505210003 | 18 | 0 | 0.0 | 0.0 | 0.00 | 0.03 | 0.03 | 69 | 1006.8 |
| 20260505205003 | 19 | 0 | 0.0 | 0.0 | 0.00 | 0.03 | 0.03 | 64 | 1006.9 |
| 20260505204503 | 20 | 0 | 0.0 | 0.0 | 0.00 | 0.03 | 0.03 | 60 | 1006.7 |
| 20260505204003 | 20 | 0 | 0.0 | 0.0 | 0.00 | 0.03 | 0.03 | 58 | 1006.5 |
| 20260505203503 | 21 | 0 | 0.0 | 0.0 | 0.00 | 0.03 | 0.03 | 57 | 1006.7 |
| 20260505201003 | 20 | 0 | 0.0 | 0.0 | 0.00 | 0.03 | 0.03 | 56 | 1006.6 |
| 20260505200503 | 20 | 0 | 0.0 | 0.0 | 0.00 | 0.03 | 0.03 | 56 | 1006.6 |
| 20260505200003 | 20 | 0 | 0.0 | 0.0 | 0.00 | 0.03 | 0.03 | 56 | 1006.6 |
| 20260505195003 | 20 | 245 | 0.0 | 16.1 | 0.00 | 0.03 | 0.03 | 55 | 1006.9 |
| 20260505194503 | 20 | 245 | 0.0 | 16.1 | 0.00 | 0.03 | 0.03 | 55 | 1006.9 |
| 20260505194003 | 20 | 280 | 0.0 | 4.8 | 0.00 | 0.03 | 0.03 | 56 | 1007.0 |
| 20260505193503 | 20 | 271 | 0.0 | 4.8 | 0.00 | 0.03 | 0.03 | 56 | 1007.1 |
| 20260505193004 | 20 | 278 | 0.0 | 8.0 | 0.00 | 0.03 | 0.03 | 55 | 1007.2 |
| 20260505192504 | 20 | 274 | 0.0 | 9.7 | 0.00 | 0.03 | 0.03 | 56 | 1007.3 |
| 20260505191003 | 20 | 245 | 0.0 | 16.1 | 0.00 | 0.03 | 0.03 | 55 | 1007.4 |
| 20260505190503 | 20 | 229 | 0.0 | 20.9 | 0.00 | 0.03 | 0.03 | 54 | 1007.4 |
| 20260505190004 | 21 | 259 | 3.2 | 35.4 | 0.00 | 0.03 | 0.03 | 53 | 1007.4 |
| 20260505185503 | 21 | 262 | 1.6 | 35.4 | 0.00 | 0.03 | 0.03 | 53 | 1007.4 |
| 20260505184503 | 21 | 270 | 0.0 | 11.3 | 0.00 | 0.03 | 0.03 | 52 | 1007.2 |
| 20260505184003 | 21 | 268 | 1.6 | 17.7 | 0.00 | 0.03 | 0.03 | 52 | 1007.1 |
| 20260505183504 | 21 | 267 | 1.6 | 25.7 | 0.00 | 0.03 | 0.03 | 52 | 1007.0 |
| 20260505182503 | 21 | 249 | 0.0 | 8.0 | 0.00 | 0.03 | 0.03 | 52 | 1007.0 |
| 20260505182003 | 21 | 271 | 0.0 | 8.0 | 0.00 | 0.03 | 0.03 | 52 | 1006.9 |
| 20260505181503 | 21 | 228 | 0.0 | 19.3 | 0.00 | 0.03 | 0.03 | 53 | 1006.9 |
| 20260505181004 | 21 | 234 | 0.0 | 19.3 | 0.00 | 0.03 | 0.03 | 52 | 1007.0 |
| 20260505180504 | 21 | 289 | 0.0 | 11.3 | 0.00 | 0.03 | 0.03 | 52 | 1007.0 |
| 20260505180004 | 21 | 277 | 0.0 | 14.5 | 0.00 | 0.03 | 0.03 | 52 | 1007.0 |
| 20260505175504 | 21 | 273 | 0.0 | 14.5 | 0.00 | 0.03 | 0.03 | 52 | 1007.0 |
| 20260505175003 | 21 | 280 | 0.0 | 22.5 | 0.00 | 0.03 | 0.03 | 52 | 1007.0 |
| 20260505174503 | 21 | 264 | 1.6 | 22.5 | 0.00 | 0.03 | 0.03 | 53 | 1006.9 |
| 20260505174004 | 21 | 262 | 3.2 | 22.5 | 0.00 | 0.03 | 0.03 | 52 | 1006.9 |
| 20260505173504 | 21 | 263 | 1.6 | 19.3 | 0.00 | 0.03 | 0.03 | 51 | 1006.8 |
| 20260505173004 | 21 | 274 | 0.0 | 20.9 | 0.00 | 0.03 | 0.03 | 51 | 1006.9 |
| 20260505172504 | 21 | 287 | 0.0 | 20.9 | 0.00 | 0.03 | 0.03 | 50 | 1006.8 |
| 20260505172003 | 21 | 253 | 0.0 | 8.0 | 0.00 | 0.03 | 0.03 | 52 | 1006.8 |
| 20260505171003 | 21 | 263 | 3.2 | 29.0 | 0.00 | 0.03 | 0.03 | 53 | 1006.9 |
| 20260505170504 | 22 | 255 | 3.2 | 29.0 | 0.00 | 0.03 | 0.03 | 51 | 1006.9 |
| 20260505170004 | 22 | 253 | 1.6 | 27.4 | 0.00 | 0.03 | 0.03 | 51 | 1006.9 |
| 20260505165504 | 22 | 264 | 1.6 | 27.4 | 0.00 | 0.03 | 0.03 | 52 | 1006.9 |
| 20260505165004 | 21 | 262 | 0.0 | 19.3 | 0.00 | 0.03 | 0.03 | 53 | 1006.8 |
| 20260505164504 | 21 | 253 | 1.6 | 24.1 | 0.00 | 0.03 | 0.03 | 54 | 1006.9 |
| 20260505164003 | 21 | 239 | 3.2 | 24.1 | 0.00 | 0.03 | 0.03 | 54 | 1007.1 |
| 20260505163503 | 21 | 254 | 3.2 | 27.4 | 0.00 | 0.03 | 0.03 | 54 | 1006.9 |
| 20260505162503 | 21 | 252 | 1.6 | 16.1 | 0.00 | 0.03 | 0.03 | 55 | 1006.8 |
| 20260505162003 | 21 | 258 | 1.6 | 22.5 | 0.00 | 0.03 | 0.03 | 55 | 1006.7 |
| 20260505161004 | 21 | 263 | 3.2 | 35.4 | 0.00 | 0.03 | 0.03 | 56 | 1006.8 |
| 20260505160504 | 20 | 261 | 1.6 | 35.4 | 0.00 | 0.03 | 0.03 | 57 | 1006.8 |
| 20260505152504 | 20 | 238 | 1.6 | 27.4 | 0.03 | 0.03 | 0.03 | 61 | 1007.2 |
| 20260505152004 | 20 | 264 | 1.6 | 29.0 | 0.03 | 0.03 | 0.03 | 62 | 1007.2 |
| 20260505151504 | 19 | 270 | 4.8 | 30.6 | 0.03 | 0.03 | 0.03 | 63 | 1007.0 |
| 20260505151004 | 19 | 268 | 3.2 | 30.6 | 0.03 | 0.03 | 0.03 | 62 | 1007.1 |
| 20260505140504 | 17 | 172 | 0.0 | 6.4 | 0.00 | 0.00 | 0.00 | 70 | 1006.8 |
| 20260505125004 | 18 | 193 | 0.0 | 14.5 | 0.00 | 0.00 | 0.00 | 61 | 1006.5 |
| 20260505124503 | 18 | 231 | 0.0 | 11.3 | 0.00 | 0.00 | 0.00 | 61 | 1006.5 |
| 20260505124003 | 18 | 217 | 0.0 | 12.9 | 0.00 | 0.00 | 0.00 | 61 | 1006.6 |
| 20260505123503 | 18 | 199 | 0.0 | 12.9 | 0.00 | 0.00 | 0.00 | 61 | 1006.6 |
| 20260505123003 | 18 | 264 | 0.0 | 11.3 | 0.00 | 0.00 | 0.00 | 62 | 1006.4 |
| 20260505122503 | 18 | 232 | 0.0 | 11.3 | 0.00 | 0.00 | 0.00 | 62 | 1006.6 |
| 20260505122004 | 18 | 223 | 0.0 | 11.3 | 0.00 | 0.00 | 0.00 | 62 | 1006.5 |
| 20260505121504 | 18 | 238 | 0.0 | 12.9 | 0.00 | 0.00 | 0.00 | 62 | 1006.4 |
| 20260505121004 | 18 | 226 | 0.0 | 12.9 | 0.00 | 0.00 | 0.00 | 62 | 1006.5 |
| 20260505120503 | 18 | 169 | 0.0 | 12.9 | 0.00 | 0.00 | 0.00 | 63 | 1006.5 |
| 20260505120004 | 17 | 187 | 0.0 | 12.9 | 0.00 | 0.00 | 0.00 | 63 | 1006.6 |
| 20260505115503 | 17 | 258 | 0.0 | 9.7 | 0.00 | 0.00 | 0.00 | 63 | 1006.5 |
| 20260505115003 | 17 | 202 | 0.0 | 11.3 | 0.00 | 0.00 | 0.00 | 64 | 1006.4 |
| 20260505114503 | 17 | 204 | 0.0 | 11.3 | 0.00 | 0.00 | 0.00 | 63 | 1006.4 |
| 20260505114003 | 17 | 235 | 0.0 | 1.6 | 0.00 | 0.00 | 0.00 | 64 | 1006.3 |
| 20260505113504 | 17 | 0 | 0.0 | 0.0 | 0.00 | 0.00 | 0.00 | 64 | 1006.4 |
| 20260505113004 | 17 | 142 | 0.0 | 9.7 | 0.00 | 0.00 | 0.00 | 64 | 1006.4 |